HNL2DA CYQR-TXKF

Flight info

Callsign HNL2DA
Flight time 4h 25m
Altitude 33000
Route DURUR Q831 KOBID Q845 OTLUR Q834 DLH J140 SSM/N0494F350 Q917 PEPLA Q140 ARRKK Q812 STOMP J95 DPK/N0488F360 Q419 JFK/N0486F350 Y483 SHIPP Y487 DOGRS Y483 MARIG/M084F350 L461 BOVIC MOMOM1
Aircraft MD11/H-SDE1E2E3FGHIJ2J3J4J5M1RWXY/LB1D1

Departure

Time 2026-04-30 08:50
Airport Regina International Airport (CYQR)

Arrival

Time 2026-04-30 13:15
Airport L.F. Wade International Airport (TXKF)
Time Latitude Longitude Altitude Speed Heading
2026-04-30 08:37 50.43519 -104.66004 1911 ft 0 kts 48°
2026-04-30 08:39 50.43515 -104.66010 1896 ft 2 kts 48°
2026-04-30 08:39 50.43508 -104.66024 1896 ft 2 kts 48°
2026-04-30 08:39 50.43500 -104.66038 1896 ft 2 kts 48°
2026-04-30 08:40 50.43492 -104.66051 1896 ft 2 kts 48°
2026-04-30 08:40 50.43484 -104.66065 1896 ft 2 kts 59°
2026-04-30 08:40 50.43479 -104.66082 1899 ft 2 kts 83°
2026-04-30 08:40 50.43478 -104.66100 1896 ft 2 kts 108°
2026-04-30 08:41 50.43480 -104.66110 1896 ft 0 kts 135°
2026-04-30 08:44 50.43479 -104.66110 1896 ft 1 kts 135°
2026-04-30 08:45 50.43466 -104.66089 1896 ft 5 kts 135°
2026-04-30 08:45 50.43436 -104.66045 1902 ft 7 kts 137°
2026-04-30 08:45 50.43396 -104.65987 1896 ft 9 kts 137°
2026-04-30 08:45 50.43343 -104.65914 1897 ft 12 kts 139°
2026-04-30 08:46 50.43274 -104.65817 1896 ft 15 kts 138°
2026-04-30 08:46 50.43190 -104.65700 1902 ft 18 kts 138°
2026-04-30 08:46 50.43091 -104.65564 1899 ft 20 kts 138°
2026-04-30 08:46 50.42983 -104.65408 1900 ft 22 kts 137°
2026-04-30 08:47 50.42863 -104.65237 1898 ft 24 kts 139°
2026-04-30 08:47 50.42740 -104.65065 1903 ft 23 kts 138°
2026-04-30 08:47 50.42640 -104.64930 1903 ft 16 kts 144°
2026-04-30 08:47 50.42543 -104.64895 1903 ft 13 kts 179°
2026-04-30 08:48 50.42465 -104.64932 1896 ft 11 kts 211°
2026-04-30 08:48 50.42426 -104.64965 1896 ft 1 kts 224°
2026-04-30 08:48 50.42425 -104.64975 1898 ft 1 kts 252°
2026-04-30 08:48 50.42431 -104.64995 1901 ft 2 kts 300°
2026-04-30 08:49 50.42449 -104.65021 1899 ft 8 kts 316°
2026-04-30 08:49 50.42688 -104.65359 1898 ft 85 kts 317°
2026-04-30 08:49 50.43140 -104.65996 1899 ft 137 kts 318°
2026-04-30 08:49 50.43973 -104.67162 1982 ft 176 kts 319°
2026-04-30 08:50 50.44910 -104.68368 2687 ft 173 kts 328°
2026-04-30 08:50 50.46013 -104.69342 3115 ft 194 kts 334°
2026-04-30 08:50 50.47300 -104.70405 3266 ft 224 kts 333°
2026-04-30 08:50 50.48743 -104.71648 3425 ft 247 kts 332°
2026-04-30 08:51 50.50295 -104.73042 3570 ft 269 kts 331°
2026-04-30 08:51 50.51923 -104.74553 4298 ft 272 kts 331°
2026-04-30 08:51 50.53541 -104.76089 5208 ft 271 kts 331°
2026-04-30 08:51 50.55146 -104.77633 6127 ft 270 kts 332°
2026-04-30 08:52 50.56798 -104.79014 6980 ft 268 kts 339°
2026-04-30 08:52 50.58576 -104.79848 7770 ft 267 kts 352°
2026-04-30 08:52 50.60426 -104.79926 8544 ft 268 kts
2026-04-30 08:52 50.62240 -104.79193 9303 ft 272 kts 21°
2026-04-30 08:53 50.63884 -104.77667 10040 ft 278 kts 36°
2026-04-30 08:53 50.65278 -104.75371 10301 ft 305 kts 51°
2026-04-30 08:53 50.66230 -104.72287 10447 ft 333 kts 69°
2026-04-30 08:53 50.66569 -104.68563 10820 ft 351 kts 84°
2026-04-30 08:54 50.66542 -104.64670 11478 ft 358 kts 87°
2026-04-30 08:54 50.66423 -104.60736 12160 ft 361 kts 88°
2026-04-30 08:54 50.66297 -104.56759 12856 ft 364 kts 87°
2026-04-30 08:54 50.66187 -104.52753 13531 ft 368 kts 86°
2026-04-30 08:55 50.66094 -104.48709 14191 ft 371 kts 86°
2026-04-30 08:55 50.66012 -104.44627 14808 ft 374 kts 85°
2026-04-30 08:55 50.65937 -104.40516 15432 ft 376 kts 85°
2026-04-30 08:55 50.65864 -104.36378 16041 ft 379 kts 85°
2026-04-30 08:56 50.65793 -104.32212 16664 ft 382 kts 84°
2026-04-30 08:56 50.65720 -104.28004 17283 ft 385 kts 84°
2026-04-30 08:56 50.65646 -104.23769 17899 ft 388 kts 84°
2026-04-30 08:56 50.65569 -104.19506 18505 ft 391 kts 84°
2026-04-30 08:57 50.65491 -104.15202 19037 ft 394 kts 84°
2026-04-30 08:57 50.65410 -104.10870 19550 ft 397 kts 84°
2026-04-30 08:57 50.65326 -104.06511 20074 ft 399 kts 84°
2026-04-30 08:57 50.65241 -104.02125 20557 ft 402 kts 84°
2026-04-30 08:58 50.65153 -103.97698 21056 ft 405 kts 84°
2026-04-30 08:58 50.65063 -103.93251 21554 ft 408 kts 84°
2026-04-30 08:58 50.64972 -103.88827 22036 ft 410 kts 84°
2026-04-30 08:58 50.64878 -103.84317 22524 ft 413 kts 84°
2026-04-30 08:59 50.64781 -103.79779 23002 ft 416 kts 84°
2026-04-30 08:59 50.64681 -103.75205 23483 ft 419 kts 84°
2026-04-30 08:59 50.64579 -103.70611 23942 ft 422 kts 84°
2026-04-30 08:59 50.64474 -103.65978 24330 ft 424 kts 85°
2026-04-30 09:00 50.64367 -103.61320 24751 ft 426 kts 85°
2026-04-30 09:00 50.64257 -103.56638 25160 ft 429 kts 85°
2026-04-30 09:00 50.64146 -103.51939 25557 ft 431 kts 85°
2026-04-30 09:00 50.64031 -103.47198 25939 ft 434 kts 85°
2026-04-30 09:01 50.63914 -103.42435 26317 ft 436 kts 85°
2026-04-30 09:01 50.63785 -103.37643 26690 ft 439 kts 86°
2026-04-30 09:01 50.63638 -103.32821 27065 ft 442 kts 86°
2026-04-30 09:01 50.63489 -103.27966 27422 ft 445 kts 86°
2026-04-30 09:02 50.63253 -103.19851 28029 ft 448 kts 86°
2026-04-30 09:02 50.63115 -103.14937 28363 ft 451 kts 86°
2026-04-30 09:02 50.62978 -103.09982 28701 ft 453 kts 86°
2026-04-30 09:03 50.62839 -103.05008 29037 ft 456 kts 86°
2026-04-30 09:03 50.62699 -103.00011 29356 ft 458 kts 87°
2026-04-30 09:03 50.62555 -102.94989 29666 ft 461 kts 87°
2026-04-30 09:03 50.62408 -102.89940 29986 ft 463 kts 87°
2026-04-30 09:04 50.62258 -102.84860 30317 ft 465 kts 87°
2026-04-30 09:04 50.62105 -102.79759 30578 ft 468 kts 87°
2026-04-30 09:04 50.61949 -102.74626 30817 ft 471 kts 88°
2026-04-30 09:04 50.61790 -102.69459 31041 ft 473 kts 88°
2026-04-30 09:05 50.61627 -102.64269 31292 ft 474 kts 88°
2026-04-30 09:05 50.61461 -102.59070 31567 ft 475 kts 88°
2026-04-30 09:05 50.61293 -102.53877 31835 ft 476 kts 88°
2026-04-30 09:05 50.61122 -102.48671 32101 ft 476 kts 89°
2026-04-30 09:06 50.60950 -102.43463 32350 ft 477 kts 89°
2026-04-30 09:06 50.60774 -102.38248 32610 ft 477 kts 89°
2026-04-30 09:06 50.60597 -102.33033 32856 ft 477 kts 89°
2026-04-30 09:06 50.60419 -102.27876 33111 ft 477 kts 89°
2026-04-30 09:07 50.60237 -102.22648 33262 ft 480 kts 89°
2026-04-30 09:07 50.60052 -102.17379 33293 ft 484 kts 89°
2026-04-30 09:07 50.59628 -102.06783 33295 ft 484 kts 90°
2026-04-30 09:08 50.59204 -101.96232 33296 ft 483 kts 90°
2026-04-30 09:08 50.58797 -101.85677 33296 ft 483 kts 90°
2026-04-30 09:09 50.58389 -101.75113 33293 ft 483 kts 90°
2026-04-30 09:09 50.57971 -101.64549 33293 ft 483 kts 90°
2026-04-30 09:10 50.57542 -101.53991 33295 ft 484 kts 90°
2026-04-30 09:10 50.57104 -101.43432 33294 ft 484 kts 90°
2026-04-30 09:11 50.56655 -101.32866 33290 ft 484 kts 91°
2026-04-30 09:11 50.56197 -101.22299 33289 ft 484 kts 91°
2026-04-30 09:12 50.55730 -101.11746 33292 ft 484 kts 91°
2026-04-30 09:12 50.55253 -101.01191 33291 ft 484 kts 91°
2026-04-30 09:13 50.54767 -100.90641 33291 ft 484 kts 91°
2026-04-30 09:13 50.54243 -100.80098 33293 ft 484 kts 92°
2026-04-30 09:14 50.53694 -100.69554 33290 ft 484 kts 92°
2026-04-30 09:14 50.53168 -100.59070 33291 ft 484 kts 91°
2026-04-30 09:15 50.52643 -100.48533 33292 ft 484 kts 92°
2026-04-30 09:15 50.52110 -100.37979 33292 ft 484 kts 92°
2026-04-30 09:16 50.51567 -100.27442 33287 ft 484 kts 92°
2026-04-30 09:16 50.51014 -100.16907 33285 ft 484 kts 92°
2026-04-30 09:17 50.50451 -100.06368 33289 ft 484 kts 92°
2026-04-30 09:17 50.49882 -99.95896 33290 ft 484 kts 92°
2026-04-30 09:18 50.49300 -99.85369 33278 ft 484 kts 92°
2026-04-30 09:18 50.48708 -99.74837 33292 ft 484 kts 92°
2026-04-30 09:19 50.48107 -99.64306 33282 ft 484 kts 92°
2026-04-30 09:19 50.47487 -99.53794 33292 ft 484 kts 93°
2026-04-30 09:20 50.46818 -99.43274 33297 ft 484 kts 93°
2026-04-30 09:20 50.46165 -99.32762 33282 ft 484 kts 93°
2026-04-30 09:21 50.45522 -99.22237 33290 ft 484 kts 93°
2026-04-30 09:21 50.44875 -99.11739 33290 ft 484 kts 93°
2026-04-30 09:22 50.44222 -99.01294 33289 ft 484 kts 93°
2026-04-30 09:22 50.43555 -98.90792 33279 ft 484 kts 93°
2026-04-30 09:23 50.42878 -98.80289 33279 ft 484 kts 94°
2026-04-30 09:23 50.41515 -98.69942 33275 ft 489 kts 108°
2026-04-30 09:24 50.38507 -98.60346 33280 ft 492 kts 117°
2026-04-30 09:24 50.35106 -98.51036 33265 ft 493 kts 117°
2026-04-30 09:25 50.31809 -98.41626 33267 ft 492 kts 116°
2026-04-30 09:25 50.28596 -98.32154 33268 ft 493 kts 115°
2026-04-30 09:26 50.25398 -98.22681 33264 ft 493 kts 116°
2026-04-30 09:26 50.22206 -98.13278 33257 ft 493 kts 116°
2026-04-30 09:27 50.18984 -98.03832 33264 ft 493 kts 116°
2026-04-30 09:27 50.15750 -97.94393 33262 ft 493 kts 116°
2026-04-30 09:28 50.12508 -97.84965 33258 ft 494 kts 116°
2026-04-30 09:28 50.09254 -97.75539 33257 ft 494 kts 116°
2026-04-30 09:29 50.05992 -97.66120 33256 ft 494 kts 116°
2026-04-30 09:29 50.02719 -97.56712 33241 ft 495 kts 116°
2026-04-30 09:30 49.99401 -97.47339 33232 ft 495 kts 117°
2026-04-30 09:30 49.96088 -97.37971 33222 ft 495 kts 116°
2026-04-30 09:31 49.92778 -97.28597 33219 ft 495 kts 118°
2026-04-30 09:31 49.88768 -97.19889 33221 ft 498 kts 128°
2026-04-30 09:32 49.84212 -97.11784 33224 ft 499 kts 130°
2026-04-30 09:32 49.79626 -97.03714 33230 ft 499 kts 129°
2026-04-30 09:33 49.75088 -96.95582 33234 ft 499 kts 129°
2026-04-30 09:33 49.70570 -96.87435 33241 ft 499 kts 129°
2026-04-30 09:34 49.66077 -96.79353 33246 ft 499 kts 129°
2026-04-30 09:34 49.61545 -96.71233 33246 ft 500 kts 129°
2026-04-30 09:35 49.57002 -96.63122 33246 ft 500 kts 129°
2026-04-30 09:35 49.52447 -96.55017 33247 ft 500 kts 129°
2026-04-30 09:36 49.47893 -96.46935 33244 ft 500 kts 129°
2026-04-30 09:36 49.43323 -96.38852 33243 ft 501 kts 130°
2026-04-30 09:37 49.38748 -96.30786 33246 ft 501 kts 130°
2026-04-30 09:37 49.34146 -96.22767 33245 ft 501 kts 130°
2026-04-30 09:38 49.29539 -96.14756 33241 ft 501 kts 130°
2026-04-30 09:38 49.24940 -96.06739 33249 ft 501 kts 130°
2026-04-30 09:39 49.20337 -95.98720 33237 ft 502 kts 130°
2026-04-30 09:39 49.15726 -95.90711 33241 ft 502 kts 130°
2026-04-30 09:40 49.11105 -95.82710 33230 ft 502 kts 130°
2026-04-30 09:40 49.06476 -95.74723 33205 ft 503 kts 130°
2026-04-30 09:41 49.01835 -95.66739 33212 ft 503 kts 130°
2026-04-30 09:41 48.97147 -95.58825 33197 ft 503 kts 131°
2026-04-30 09:42 48.92447 -95.51018 33187 ft 504 kts 131°
2026-04-30 09:42 48.87717 -95.43163 33183 ft 504 kts 131°
2026-04-30 09:43 48.82989 -95.35312 33187 ft 504 kts 131°
2026-04-30 09:43 48.78254 -95.27470 33196 ft 504 kts 131°
2026-04-30 09:44 48.73510 -95.19635 33212 ft 504 kts 132°
2026-04-30 09:44 48.68758 -95.11811 33220 ft 505 kts 132°
2026-04-30 09:45 48.64000 -95.04002 33211 ft 505 kts 132°
2026-04-30 09:45 48.59232 -94.96200 33206 ft 505 kts 132°
2026-04-30 09:46 48.54460 -94.88415 33200 ft 505 kts 132°
2026-04-30 09:46 48.49680 -94.80640 33198 ft 506 kts 132°
2026-04-30 09:47 48.44892 -94.72876 33202 ft 506 kts 132°
2026-04-30 09:47 48.40074 -94.65153 33194 ft 506 kts 133°
2026-04-30 09:48 48.35251 -94.57431 33183 ft 506 kts 133°
2026-04-30 09:48 48.31249 -94.51008 33175 ft 507 kts 133°
2026-04-30 09:49 48.25646 -94.42026 33170 ft 507 kts 133°
2026-04-30 09:49 48.20821 -94.34314 33166 ft 507 kts 133°
2026-04-30 09:50 48.16768 -94.27855 33174 ft 507 kts 133°
2026-04-30 09:50 48.11956 -94.20207 33179 ft 508 kts 133°
2026-04-30 09:51 48.07101 -94.12515 33187 ft 508 kts 133°
2026-04-30 09:51 48.02239 -94.04835 33190 ft 508 kts 133°
2026-04-30 09:52 47.97372 -93.97169 33177 ft 508 kts 133°
2026-04-30 09:52 47.92504 -93.89524 33162 ft 508 kts 133°
2026-04-30 09:53 47.87626 -93.81887 33150 ft 509 kts 133°
2026-04-30 09:53 47.82715 -93.74285 33137 ft 509 kts 134°
2026-04-30 09:54 47.77802 -93.66685 33133 ft 509 kts 134°
2026-04-30 09:54 47.72901 -93.59088 33141 ft 509 kts 134°
2026-04-30 09:55 47.68026 -93.51540 33144 ft 510 kts 134°
2026-04-30 09:55 47.63083 -93.43909 33157 ft 510 kts 134°
2026-04-30 09:56 47.58194 -93.36386 33161 ft 510 kts 134°
2026-04-30 09:56 47.53262 -93.28819 33171 ft 510 kts 134°
2026-04-30 09:57 47.48315 -93.21286 33150 ft 511 kts 134°
2026-04-30 09:57 47.43345 -93.13778 33143 ft 511 kts 134°
2026-04-30 09:58 47.38377 -93.06273 33128 ft 511 kts 134°
2026-04-30 09:58 47.33411 -92.98776 33122 ft 511 kts 134°
2026-04-30 09:59 47.23455 -92.83809 33128 ft 511 kts 135°
2026-04-30 10:00 47.15974 -92.72620 33139 ft 512 kts 135°
2026-04-30 10:01 47.08470 -92.61445 33150 ft 512 kts 135°
2026-04-30 10:02 47.00954 -92.50300 33133 ft 512 kts 135°
2026-04-30 10:02 46.95937 -92.42885 33120 ft 513 kts 135°
2026-04-30 10:03 46.90938 -92.35544 33112 ft 513 kts 135°
2026-04-30 10:03 46.85922 -92.28121 33098 ft 513 kts 132°
2026-04-30 10:04 46.81843 -92.19610 33102 ft 513 kts 115°
2026-04-30 10:04 46.79684 -92.09755 33102 ft 511 kts 97°
2026-04-30 10:05 46.79367 -91.99468 33124 ft 509 kts 87°
2026-04-30 10:05 46.79497 -91.89124 33126 ft 510 kts 88°
2026-04-30 10:06 46.79456 -91.78870 33126 ft 511 kts 89°
2026-04-30 10:06 46.79284 -91.68498 33135 ft 511 kts 90°
2026-04-30 10:07 46.79076 -91.58129 33125 ft 511 kts 90°
2026-04-30 10:07 46.78864 -91.47745 33137 ft 511 kts 90°
2026-04-30 10:08 46.78651 -91.37445 33135 ft 511 kts 90°
2026-04-30 10:08 46.78429 -91.27062 33136 ft 512 kts 90°
2026-04-30 10:09 46.78196 -91.16685 33130 ft 512 kts 90°
2026-04-30 10:09 46.77954 -91.06299 33127 ft 512 kts 90°
2026-04-30 10:10 46.77703 -90.95923 33123 ft 512 kts 90°
2026-04-30 10:10 46.77438 -90.85534 33120 ft 513 kts 91°
2026-04-30 10:11 46.77125 -90.75146 33124 ft 513 kts 91°
2026-04-30 10:11 46.76818 -90.64749 33127 ft 513 kts 91°
2026-04-30 10:12 46.76524 -90.54353 33126 ft 513 kts 91°
2026-04-30 10:12 46.76226 -90.43960 33126 ft 513 kts 91°
2026-04-30 10:13 46.75920 -90.33621 33115 ft 513 kts 91°
2026-04-30 10:13 46.75602 -90.23225 33109 ft 513 kts 91°
2026-04-30 10:14 46.75274 -90.12819 33106 ft 514 kts 91°
2026-04-30 10:14 46.74764 -89.97202 33117 ft 514 kts 91°
2026-04-30 10:15 46.74412 -89.86786 33120 ft 514 kts 92°
2026-04-30 10:15 46.74051 -89.76380 33118 ft 514 kts 92°
2026-04-30 10:16 46.73680 -89.65981 33122 ft 514 kts 92°
2026-04-30 10:17 46.73048 -89.50385 33117 ft 513 kts 92°
2026-04-30 10:17 46.72435 -89.34800 33112 ft 513 kts 92°
2026-04-30 10:18 46.72029 -89.24422 33109 ft 513 kts 92°
2026-04-30 10:19 46.71401 -89.08844 33110 ft 513 kts 92°
2026-04-30 10:19 46.70972 -88.98531 33105 ft 513 kts 93°
2026-04-30 10:20 46.70531 -88.88153 33101 ft 513 kts 93°
2026-04-30 10:20 46.69852 -88.72588 33101 ft 513 kts 93°
2026-04-30 10:21 46.69387 -88.62200 33100 ft 514 kts 93°
2026-04-30 10:21 46.68913 -88.51823 33092 ft 514 kts 93°
2026-04-30 10:22 46.68419 -88.41434 33090 ft 514 kts 94°
2026-04-30 10:22 46.67882 -88.31055 33092 ft 514 kts 94°
2026-04-30 10:23 46.67359 -88.20681 33104 ft 514 kts 94°
2026-04-30 10:23 46.66844 -88.10287 33101 ft 514 kts 94°
2026-04-30 10:24 46.66324 -87.99899 33105 ft 514 kts 94°
2026-04-30 10:24 46.65794 -87.89516 33102 ft 514 kts 94°
2026-04-30 10:25 46.65256 -87.79200 33105 ft 515 kts 94°
2026-04-30 10:25 46.64706 -87.68819 33101 ft 515 kts 94°
2026-04-30 10:26 46.64146 -87.58435 33095 ft 515 kts 95°
2026-04-30 10:26 46.63571 -87.47969 33085 ft 515 kts 95°
2026-04-30 10:27 46.62992 -87.37587 33086 ft 516 kts 95°
2026-04-30 10:27 46.62407 -87.27256 33084 ft 515 kts 95°
2026-04-30 10:28 46.61781 -87.16868 33090 ft 516 kts 96°
2026-04-30 10:28 46.61134 -87.06464 33095 ft 516 kts 96°
2026-04-30 10:29 46.60505 -86.96069 33095 ft 517 kts 96°
2026-04-30 10:29 46.59877 -86.85656 33091 ft 517 kts 96°
2026-04-30 10:30 46.59240 -86.75244 33090 ft 517 kts 96°
2026-04-30 10:30 46.58593 -86.64830 33088 ft 517 kts 96°
2026-04-30 10:31 46.57935 -86.54418 33083 ft 517 kts 96°
2026-04-30 10:31 46.57268 -86.44011 33081 ft 517 kts 96°
2026-04-30 10:32 46.56591 -86.33601 33084 ft 518 kts 97°
2026-04-30 10:32 46.55905 -86.23188 33079 ft 517 kts 97°
2026-04-30 10:33 46.55209 -86.12783 33086 ft 518 kts 97°
2026-04-30 10:33 46.54499 -86.02370 33081 ft 518 kts 97°
2026-04-30 10:34 46.53742 -85.91971 33078 ft 518 kts 98°
2026-04-30 10:34 46.52997 -85.81641 33075 ft 518 kts 97°
2026-04-30 10:35 46.52258 -85.71233 33070 ft 518 kts 98°
2026-04-30 10:35 46.51516 -85.60832 33043 ft 518 kts 98°
2026-04-30 10:36 46.50765 -85.50434 33050 ft 518 kts 98°
2026-04-30 10:36 46.50002 -85.40030 33046 ft 518 kts 98°
2026-04-30 10:37 46.49229 -85.29630 33047 ft 518 kts 98°
2026-04-30 10:37 46.48448 -85.19243 33054 ft 518 kts 98°
2026-04-30 10:38 46.47791 -85.10614 33052 ft 518 kts 98°
2026-04-30 10:38 46.46861 -84.98530 33053 ft 518 kts 99°
2026-04-30 10:39 46.46183 -84.89832 33044 ft 518 kts 99°
2026-04-30 10:39 46.45350 -84.79445 33033 ft 518 kts 99°
2026-04-30 10:40 46.44480 -84.69067 33026 ft 519 kts 99°
2026-04-30 10:40 46.43625 -84.58685 33026 ft 519 kts 99°
2026-04-30 10:41 46.42777 -84.48299 33024 ft 519 kts 99°
2026-04-30 10:41 46.41895 -84.37978 33026 ft 518 kts 102°
2026-04-30 10:42 46.39877 -84.28010 33022 ft 509 kts 120°
2026-04-30 10:42 46.36104 -84.19492 33028 ft 500 kts 133°
2026-04-30 10:43 46.31773 -84.11609 33035 ft 501 kts 133°
2026-04-30 10:43 46.27510 -84.03735 33034 ft 501 kts 133°
2026-04-30 10:44 46.23254 -83.95756 33032 ft 501 kts 132°
2026-04-30 10:44 46.19018 -83.87748 33027 ft 502 kts 132°
2026-04-30 10:45 46.14781 -83.79743 33034 ft 502 kts 132°
2026-04-30 10:45 46.10533 -83.71754 33029 ft 502 kts 133°
2026-04-30 10:46 46.06270 -83.63787 33017 ft 502 kts 133°
2026-04-30 10:46 46.02004 -83.55821 33017 ft 502 kts 133°
2026-04-30 10:47 45.97737 -83.47864 33022 ft 503 kts 133°
2026-04-30 10:47 45.93456 -83.39903 33023 ft 503 kts 133°
2026-04-30 10:48 45.89175 -83.31950 33014 ft 503 kts 133°
2026-04-30 10:48 45.84890 -83.23998 33016 ft 504 kts 133°
2026-04-30 10:49 45.80625 -83.16107 33030 ft 504 kts 133°
2026-04-30 10:49 45.76326 -83.08173 33003 ft 504 kts 133°
2026-04-30 10:50 45.72019 -83.00248 33010 ft 504 kts 133°
2026-04-30 10:50 45.67707 -82.92336 33009 ft 504 kts 133°
2026-04-30 10:51 45.63386 -82.84430 33008 ft 505 kts 133°
2026-04-30 10:51 45.59057 -82.76533 33008 ft 505 kts 133°
2026-04-30 10:52 45.54723 -82.68647 33009 ft 505 kts 134°
2026-04-30 10:52 45.50373 -82.60755 33007 ft 505 kts 134°
2026-04-30 10:53 45.46018 -82.52882 33003 ft 506 kts 134°
2026-04-30 10:53 45.41557 -82.45157 33003 ft 504 kts 137°
2026-04-30 10:54 45.36875 -82.37756 32999 ft 503 kts 138°
2026-04-30 10:54 45.32148 -82.30417 32996 ft 503 kts 138°
2026-04-30 10:55 45.27455 -82.23100 33296 ft 508 kts 135°
2026-04-30 10:55 45.25087 -82.19398 33055 ft 502 kts 135°
2026-04-30 10:55 45.22755 -82.15747 33001 ft 497 kts 135°
2026-04-30 10:56 45.18103 -82.08480 32991 ft 499 kts 135°
2026-04-30 10:56 45.13425 -82.01200 32989 ft 500 kts 135°
2026-04-30 10:57 45.08744 -81.93934 32985 ft 499 kts 135°
2026-04-30 10:57 45.04057 -81.86679 32984 ft 499 kts 135°
2026-04-30 10:58 44.99371 -81.79444 32990 ft 499 kts 135°
2026-04-30 10:58 44.94684 -81.72227 32984 ft 498 kts 136°
2026-04-30 10:59 44.89995 -81.65025 32982 ft 498 kts 136°
2026-04-30 10:59 44.85290 -81.57847 32971 ft 498 kts 136°
2026-04-30 11:00 44.80573 -81.50699 32970 ft 498 kts 136°
2026-04-30 11:00 44.75868 -81.43551 32961 ft 498 kts 136°
2026-04-30 11:01 44.71160 -81.36395 32952 ft 497 kts 136°
2026-04-30 11:01 44.66459 -81.29268 32949 ft 497 kts 136°
2026-04-30 11:02 44.61748 -81.22157 32947 ft 497 kts 136°
2026-04-30 11:02 44.57044 -81.15062 32952 ft 497 kts 136°
2026-04-30 11:03 44.52340 -81.07975 32953 ft 496 kts 136°
2026-04-30 11:04 44.45273 -80.97361 32953 ft 496 kts 137°
2026-04-30 11:04 44.40564 -80.90310 32955 ft 496 kts 137°
2026-04-30 11:05 44.35882 -80.83319 32948 ft 496 kts 137°
2026-04-30 11:05 44.31162 -80.76288 32955 ft 496 kts 137°
2026-04-30 11:06 44.26444 -80.69277 32933 ft 496 kts 137°
2026-04-30 11:06 44.21715 -80.62269 32948 ft 496 kts 137°
2026-04-30 11:07 44.16989 -80.55283 32947 ft 496 kts 137°
2026-04-30 11:07 44.12257 -80.48304 32941 ft 496 kts 137°
2026-04-30 11:08 44.07507 -80.41353 32942 ft 495 kts 138°
2026-04-30 11:08 44.02750 -80.34426 32938 ft 495 kts 138°
2026-04-30 11:09 43.98003 -80.27492 32938 ft 495 kts 138°
2026-04-30 11:09 43.93262 -80.20570 32937 ft 495 kts 138°
2026-04-30 11:10 43.88544 -80.13698 32938 ft 495 kts 138°
2026-04-30 11:10 43.83800 -80.06805 32938 ft 494 kts 138°
2026-04-30 11:11 43.79371 -79.99481 32920 ft 501 kts 126°
2026-04-30 11:11 43.76554 -79.90575 32922 ft 511 kts 108°
2026-04-30 11:12 43.74984 -79.80963 32917 ft 513 kts 105°
2026-04-30 11:12 43.73300 -79.71380 32912 ft 511 kts 109°
2026-04-30 11:13 43.71350 -79.61925 32914 ft 511 kts 110°
2026-04-30 11:13 43.69308 -79.52522 32914 ft 511 kts 110°
2026-04-30 11:14 43.67272 -79.43176 32921 ft 511 kts 110°
2026-04-30 11:14 43.65116 -79.33833 32921 ft 509 kts 114°
2026-04-30 11:15 43.62606 -79.24696 32924 ft 508 kts 115°
2026-04-30 11:15 43.60024 -79.15612 32920 ft 508 kts 115°
2026-04-30 11:16 43.57462 -79.06522 32913 ft 509 kts 115°
2026-04-30 11:16 43.54907 -78.97405 32910 ft 509 kts 115°
2026-04-30 11:17 43.52338 -78.88326 32906 ft 508 kts 115°
2026-04-30 11:17 43.49775 -78.79321 32901 ft 508 kts 115°
2026-04-30 11:18 43.47194 -78.70257 32902 ft 508 kts 115°
2026-04-30 11:18 43.43329 -78.56675 32894 ft 508 kts 115°
2026-04-30 11:19 43.40746 -78.47629 32887 ft 508 kts 115°
2026-04-30 11:19 43.38158 -78.38597 32894 ft 507 kts 115°
2026-04-30 11:20 43.35565 -78.29581 32892 ft 507 kts 115°
2026-04-30 11:20 43.32964 -78.20569 32893 ft 507 kts 116°
2026-04-30 11:21 43.30146 -78.11728 32893 ft 504 kts 122°
2026-04-30 11:21 43.26734 -78.03365 32893 ft 502 kts 125°
2026-04-30 11:22 43.23203 -77.95106 32891 ft 502 kts 125°
2026-04-30 11:22 43.19730 -77.86866 32891 ft 502 kts 124°
2026-04-30 11:23 43.16261 -77.78560 32892 ft 502 kts 124°
2026-04-30 11:24 43.11049 -77.66098 32894 ft 503 kts 124°
2026-04-30 11:24 43.07562 -77.57798 32894 ft 503 kts 125°
2026-04-30 11:25 43.02319 -77.45364 32898 ft 503 kts 125°
2026-04-30 11:26 42.95304 -77.28811 32906 ft 503 kts 125°
2026-04-30 11:26 42.91795 -77.20565 32901 ft 502 kts 125°
2026-04-30 11:27 42.88854 -77.13737 32899 ft 502 kts 126°
2026-04-30 11:27 42.85251 -77.05593 32890 ft 501 kts 126°
2026-04-30 11:28 42.79846 -76.93397 32877 ft 501 kts 126°
2026-04-30 11:29 42.76247 -76.85269 32883 ft 501 kts 126°
2026-04-30 11:29 42.70843 -76.73083 32874 ft 501 kts 126°
2026-04-30 11:30 42.65421 -76.60914 32870 ft 501 kts 126°
2026-04-30 11:31 42.61794 -76.52832 32870 ft 501 kts 126°
2026-04-30 11:31 42.58165 -76.44750 32874 ft 502 kts 126°
2026-04-30 11:32 42.54532 -76.36669 32874 ft 502 kts 126°
2026-04-30 11:32 42.50893 -76.28600 32872 ft 502 kts 126°
2026-04-30 11:33 42.45416 -76.16513 32861 ft 502 kts 126°
2026-04-30 11:33 42.41760 -76.08455 32836 ft 502 kts 126°
2026-04-30 11:34 42.38100 -76.00404 32835 ft 502 kts 126°
2026-04-30 11:34 42.34457 -75.92414 32835 ft 503 kts 126°
2026-04-30 11:35 42.30782 -75.84374 32838 ft 503 kts 126°
2026-04-30 11:35 42.27097 -75.76345 32832 ft 503 kts 126°
2026-04-30 11:36 42.23402 -75.68316 32829 ft 503 kts 126°
2026-04-30 11:36 42.19714 -75.60292 32841 ft 504 kts 126°
2026-04-30 11:37 42.16018 -75.52261 32810 ft 504 kts 126°
2026-04-30 11:37 42.12319 -75.44242 32827 ft 504 kts 126°
2026-04-30 11:38 42.08614 -75.36232 32813 ft 504 kts 127°
2026-04-30 11:38 42.04286 -75.28959 32809 ft 493 kts 142°
2026-04-30 11:39 41.99052 -75.23081 32812 ft 490 kts 147°
2026-04-30 11:39 41.93690 -75.17378 33109 ft 492 kts 147°
2026-04-30 11:40 41.91036 -75.14475 33343 ft 493 kts 146°
2026-04-30 11:40 41.88394 -75.11540 33573 ft 494 kts 146°
2026-04-30 11:40 41.85756 -75.08582 33766 ft 494 kts 146°
2026-04-30 11:40 41.83120 -75.05617 33953 ft 495 kts 146°
2026-04-30 11:41 41.80483 -75.02649 34133 ft 495 kts 146°
2026-04-30 11:41 41.77844 -74.99685 34299 ft 496 kts 146°
2026-04-30 11:41 41.75234 -74.96758 34446 ft 496 kts 146°
2026-04-30 11:41 41.72582 -74.93789 34636 ft 496 kts 146°
2026-04-30 11:42 41.69927 -74.90821 34792 ft 497 kts 146°
2026-04-30 11:42 41.67265 -74.87852 34827 ft 499 kts 146°
2026-04-30 11:42 41.61931 -74.81906 34837 ft 498 kts 146°
2026-04-30 11:43 41.57193 -74.75054 34834 ft 511 kts 129°
2026-04-30 11:43 41.53672 -74.66723 34836 ft 518 kts 122°
2026-04-30 11:44 41.51217 -74.60374 34812 ft 518 kts 122°
2026-04-30 11:44 41.47770 -74.51949 34826 ft 517 kts 124°
2026-04-30 11:45 41.44204 -74.43635 34822 ft 517 kts 125°
2026-04-30 11:45 41.40475 -74.35464 34822 ft 514 kts 130°
2026-04-30 11:46 41.36230 -74.27854 34822 ft 511 kts 134°
2026-04-30 11:46 41.31850 -74.20401 34822 ft 512 kts 134°
2026-04-30 11:47 41.27491 -74.12911 34821 ft 513 kts 133°
2026-04-30 11:47 41.23173 -74.05423 34819 ft 513 kts 133°
2026-04-30 11:48 41.18836 -73.97902 34826 ft 514 kts 133°
2026-04-30 11:48 41.14478 -73.90366 34835 ft 514 kts 133°
2026-04-30 11:49 41.10119 -73.82851 34829 ft 514 kts 134°
2026-04-30 11:49 41.05751 -73.75339 34842 ft 514 kts 134°
2026-04-30 11:50 41.01378 -73.67837 34840 ft 515 kts 134°
2026-04-30 11:50 40.96843 -73.60562 34838 ft 507 kts 142°
2026-04-30 11:51 40.91326 -73.55024 34837 ft 497 kts 150°
2026-04-30 11:51 40.88649 -73.52042 34855 ft 508 kts 141°
2026-04-30 11:51 40.86307 -73.48501 34859 ft 516 kts 132°
2026-04-30 11:52 40.82301 -73.40552 34863 ft 521 kts 130°
2026-04-30 11:52 40.78050 -73.32850 34866 ft 517 kts 135°
2026-04-30 11:53 40.73466 -73.25573 34861 ft 515 kts 137°
2026-04-30 11:53 40.68812 -73.18471 34852 ft 515 kts 137°
2026-04-30 11:54 40.64096 -73.11271 34849 ft 516 kts 137°
2026-04-30 11:54 40.59448 -73.04147 34843 ft 516 kts 137°
2026-04-30 11:55 40.54762 -72.96966 34841 ft 517 kts 137°
2026-04-30 11:55 40.50071 -72.89796 34833 ft 517 kts 137°
2026-04-30 11:56 40.45377 -72.82641 34834 ft 517 kts 137°
2026-04-30 11:56 40.40670 -72.75484 34839 ft 518 kts 137°
2026-04-30 11:57 40.35947 -72.68366 34837 ft 518 kts 138°
2026-04-30 11:57 40.31212 -72.61237 34847 ft 519 kts 137°
2026-04-30 11:58 40.26483 -72.54105 34845 ft 519 kts 137°
2026-04-30 11:58 40.21738 -72.46955 34845 ft 520 kts 137°
2026-04-30 11:59 40.16991 -72.39818 34848 ft 521 kts 137°
2026-04-30 11:59 40.12226 -72.32672 34849 ft 521 kts 138°
2026-04-30 12:00 40.07477 -72.25568 34851 ft 522 kts 138°
2026-04-30 12:00 40.02697 -72.18432 34852 ft 523 kts 138°
2026-04-30 12:01 39.97903 -72.11294 34853 ft 523 kts 138°
2026-04-30 12:01 39.93098 -72.04155 34853 ft 524 kts 138°
2026-04-30 12:02 39.88289 -71.97026 34855 ft 524 kts 138°
2026-04-30 12:02 39.83456 -71.89900 34853 ft 525 kts 138°
2026-04-30 12:03 39.76184 -71.79241 34849 ft 525 kts 138°
2026-04-30 12:04 39.71337 -71.72122 34858 ft 526 kts 138°
2026-04-30 12:04 39.66485 -71.65003 34849 ft 526 kts 138°
2026-04-30 12:05 39.61622 -71.57884 34847 ft 527 kts 138°
2026-04-30 12:05 39.56754 -71.50776 34847 ft 527 kts 138°
2026-04-30 12:06 39.51910 -71.43720 34850 ft 528 kts 138°
2026-04-30 12:06 39.46948 -71.36724 34857 ft 525 kts 142°
2026-04-30 12:07 39.41621 -71.30317 34855 ft 522 kts 145°
2026-04-30 12:07 39.36182 -71.24089 34856 ft 522 kts 145°
2026-04-30 12:08 39.30756 -71.17825 34859 ft 524 kts 145°
2026-04-30 12:08 39.25342 -71.11522 34856 ft 524 kts 145°
2026-04-30 12:09 39.19920 -71.05209 34856 ft 525 kts 145°
2026-04-30 12:09 39.14490 -70.98903 34861 ft 526 kts 145°
2026-04-30 12:10 39.09041 -70.92591 34858 ft 527 kts 145°
2026-04-30 12:10 39.03582 -70.86283 34856 ft 528 kts 145°
2026-04-30 12:11 38.98113 -70.79977 34858 ft 528 kts 145°
2026-04-30 12:11 38.92632 -70.73669 34857 ft 529 kts 145°
2026-04-30 12:12 38.87145 -70.67370 34860 ft 529 kts 145°
2026-04-30 12:12 38.81636 -70.61093 34866 ft 530 kts 146°
2026-04-30 12:13 38.76149 -70.54849 34865 ft 531 kts 145°
2026-04-30 12:13 38.70633 -70.48563 34866 ft 531 kts 145°
2026-04-30 12:14 38.65102 -70.42266 34861 ft 532 kts 145°
2026-04-30 12:14 38.59562 -70.35973 34864 ft 533 kts 146°
2026-04-30 12:15 38.54910 -70.30699 34863 ft 534 kts 146°
2026-04-30 12:15 38.49382 -70.24445 34865 ft 535 kts 146°
2026-04-30 12:16 38.43799 -70.18143 34867 ft 536 kts 146°
2026-04-30 12:16 38.38210 -70.11847 34866 ft 536 kts 146°
2026-04-30 12:17 38.29735 -70.02537 34870 ft 535 kts 148°
2026-04-30 12:17 38.23960 -69.96559 34867 ft 535 kts 148°
2026-04-30 12:18 38.18163 -69.90588 34872 ft 536 kts 148°
2026-04-30 12:18 38.12369 -69.84596 34872 ft 537 kts 148°
2026-04-30 12:19 38.06575 -69.78601 34869 ft 538 kts 148°
2026-04-30 12:19 38.00769 -69.72606 34862 ft 538 kts 148°
2026-04-30 12:20 37.94993 -69.66656 34877 ft 539 kts 148°
2026-04-30 12:20 37.89165 -69.60666 34875 ft 539 kts 148°
2026-04-30 12:21 37.83328 -69.54679 34876 ft 540 kts 148°
2026-04-30 12:21 37.77487 -69.48702 34874 ft 540 kts 148°
2026-04-30 12:22 37.71634 -69.42724 34876 ft 541 kts 148°
2026-04-30 12:22 37.65770 -69.36766 34875 ft 541 kts 148°
2026-04-30 12:23 37.59885 -69.30810 34874 ft 541 kts 148°
2026-04-30 12:23 37.54005 -69.24852 34875 ft 542 kts 148°
2026-04-30 12:24 37.48129 -69.18900 34874 ft 542 kts 148°
2026-04-30 12:24 37.42281 -69.12988 34879 ft 543 kts 148°
2026-04-30 12:25 37.36389 -69.07045 34875 ft 543 kts 148°
2026-04-30 12:25 37.30490 -69.01109 34875 ft 543 kts 148°
2026-04-30 12:26 37.24585 -68.95187 34874 ft 544 kts 149°
2026-04-30 12:26 37.18660 -68.89269 34877 ft 544 kts 149°
2026-04-30 12:27 37.12741 -68.83355 34874 ft 544 kts 149°
2026-04-30 12:27 37.06814 -68.77438 34876 ft 545 kts 149°
2026-04-30 12:28 37.00883 -68.71530 34883 ft 545 kts 149°
2026-04-30 12:28 36.94947 -68.65629 34881 ft 545 kts 149°
2026-04-30 12:29 36.89040 -68.59769 34879 ft 546 kts 149°
2026-04-30 12:29 36.83091 -68.53880 34881 ft 546 kts 149°
2026-04-30 12:30 36.77137 -68.47998 34885 ft 546 kts 149°
2026-04-30 12:30 36.71171 -68.42115 34880 ft 546 kts 149°
2026-04-30 12:31 36.65201 -68.36241 34884 ft 547 kts 149°
2026-04-30 12:31 36.59221 -68.30385 34886 ft 547 kts 149°
2026-04-30 12:32 36.53234 -68.24534 34883 ft 547 kts 149°
2026-04-30 12:32 36.47254 -68.18671 34886 ft 547 kts 149°
2026-04-30 12:33 36.41277 -68.12809 34886 ft 547 kts 149°
2026-04-30 12:33 36.35296 -68.06955 34886 ft 547 kts 149°
2026-04-30 12:34 36.29310 -68.01110 34889 ft 547 kts 149°
2026-04-30 12:34 36.23323 -67.95277 34892 ft 547 kts 149°
2026-04-30 12:35 36.17373 -67.89492 34891 ft 547 kts 149°
2026-04-30 12:35 36.11384 -67.83681 34896 ft 547 kts 148°
2026-04-30 12:36 36.05395 -67.77880 34893 ft 547 kts 148°
2026-04-30 12:36 35.99412 -67.72097 34898 ft 546 kts 148°
2026-04-30 12:37 35.93420 -67.66318 34904 ft 546 kts 148°
2026-04-30 12:37 35.87414 -67.60563 34904 ft 546 kts 148°
2026-04-30 12:38 35.81413 -67.54818 34898 ft 547 kts 147°
2026-04-30 12:38 35.75408 -67.49064 34903 ft 547 kts 147°
2026-04-30 12:39 35.69391 -67.43304 34905 ft 547 kts 147°
2026-04-30 12:39 35.63413 -67.37592 34908 ft 548 kts 147°
2026-04-30 12:40 35.57353 -67.31815 34902 ft 548 kts 147°
2026-04-30 12:40 35.51369 -67.26121 34904 ft 548 kts 147°
2026-04-30 12:41 35.45333 -67.20390 34905 ft 549 kts 147°
2026-04-30 12:41 35.39285 -67.14659 34906 ft 549 kts 147°
2026-04-30 12:42 35.33233 -67.08934 34904 ft 550 kts 147°
2026-04-30 12:42 35.27166 -67.03208 34906 ft 550 kts 147°
2026-04-30 12:43 35.21093 -66.97512 34905 ft 550 kts 147°
2026-04-30 12:43 35.15016 -66.91817 34908 ft 551 kts 147°
2026-04-30 12:44 35.08931 -66.86109 34909 ft 551 kts 147°
2026-04-30 12:44 35.02891 -66.80449 34908 ft 551 kts 147°
2026-04-30 12:45 34.96805 -66.74764 34911 ft 551 kts 147°
2026-04-30 12:45 34.92323 -66.70850 34912 ft 549 kts 150°
2026-04-30 12:46 34.85964 -66.65706 34911 ft 549 kts 152°
2026-04-30 12:46 34.79572 -66.60617 34909 ft 549 kts 151°
2026-04-30 12:47 34.73184 -66.55489 34916 ft 550 kts 151°
2026-04-30 12:47 34.66806 -66.50351 34918 ft 550 kts 151°
2026-04-30 12:48 34.60422 -66.45214 34917 ft 550 kts 151°
2026-04-30 12:48 34.54031 -66.40084 34916 ft 551 kts 151°
2026-04-30 12:49 34.47634 -66.34961 34922 ft 551 kts 151°
2026-04-30 12:49 34.41232 -66.29842 34920 ft 551 kts 150°
2026-04-30 12:50 34.34827 -66.24731 34923 ft 551 kts 150°
2026-04-30 12:50 34.28421 -66.19629 34923 ft 551 kts 150°
2026-04-30 12:51 34.22051 -66.14581 34917 ft 551 kts 151°
2026-04-30 12:51 34.15638 -66.09512 34925 ft 551 kts 151°
2026-04-30 12:52 34.09230 -66.04444 34926 ft 551 kts 150°
2026-04-30 12:52 34.02821 -65.99376 34931 ft 551 kts 150°
2026-04-30 12:53 33.96419 -65.94322 34932 ft 549 kts 150°
2026-04-30 12:53 33.90027 -65.89287 34928 ft 549 kts 150°
2026-04-30 12:54 33.83640 -65.84264 34928 ft 548 kts 150°
2026-04-30 12:54 33.77283 -65.79273 34930 ft 542 kts 150°
2026-04-30 12:55 33.70975 -65.74331 34932 ft 541 kts 150°
2026-04-30 12:55 33.64659 -65.69394 34931 ft 542 kts 150°
2026-04-30 12:56 33.58337 -65.64459 34934 ft 541 kts 150°
2026-04-30 12:56 33.52031 -65.59545 34936 ft 540 kts 150°
2026-04-30 12:57 33.45770 -65.54686 34936 ft 539 kts 150°
2026-04-30 12:57 33.39464 -65.49809 34937 ft 539 kts 150°
2026-04-30 12:58 33.33166 -65.44933 34939 ft 539 kts 150°
2026-04-30 12:58 33.26872 -65.40062 34941 ft 539 kts 150°
2026-04-30 12:59 33.20573 -65.35196 34943 ft 539 kts 150°
2026-04-30 12:59 33.14292 -65.30351 33625 ft 539 kts 149°
2026-04-30 13:00 33.11125 -65.27913 32253 ft 542 kts 150°
2026-04-30 13:00 33.07970 -65.25484 31150 ft 537 kts 150°
2026-04-30 13:00 33.04904 -65.22981 30014 ft 533 kts 144°
2026-04-30 13:00 33.02120 -65.20079 28666 ft 531 kts 138°
2026-04-30 13:01 33.00398 -65.18001 27650 ft 531 kts 136°
2026-04-30 13:01 32.97906 -65.14744 26324 ft 529 kts 134°
2026-04-30 13:01 32.95493 -65.11479 25317 ft 521 kts 134°
2026-04-30 13:01 32.93116 -65.08280 24367 ft 512 kts 134°
2026-04-30 13:02 32.90748 -65.05151 23401 ft 504 kts 135°
2026-04-30 13:02 32.88397 -65.02099 22318 ft 496 kts 135°
2026-04-30 13:02 32.86076 -64.99123 21295 ft 487 kts 136°
2026-04-30 13:02 32.83047 -64.95267 20003 ft 476 kts 136°
2026-04-30 13:03 32.81526 -64.93336 19385 ft 471 kts 136°
2026-04-30 13:03 32.79308 -64.90520 18477 ft 462 kts 135°
2026-04-30 13:03 32.77127 -64.87753 17497 ft 455 kts 135°
2026-04-30 13:03 32.74982 -64.85031 16473 ft 448 kts 135°
2026-04-30 13:04 32.72869 -64.82351 15489 ft 442 kts 135°
2026-04-30 13:04 32.70787 -64.79712 14817 ft 429 kts 135°
2026-04-30 13:04 32.68812 -64.77205 14673 ft 403 kts 135°
2026-04-30 13:04 32.66953 -64.74845 14563 ft 380 kts 135°
2026-04-30 13:05 32.65194 -64.72616 14433 ft 359 kts 135°
2026-04-30 13:05 32.63560 -64.70545 14168 ft 332 kts 135°
2026-04-30 13:05 32.61991 -64.68564 13395 ft 327 kts 135°
2026-04-30 13:06 32.58920 -64.64694 11799 ft 317 kts 135°
2026-04-30 13:06 32.57420 -64.62804 11036 ft 313 kts 134°
2026-04-30 13:06 32.55934 -64.60931 10194 ft 312 kts 134°
2026-04-30 13:06 32.54460 -64.59076 9249 ft 313 kts 134°
2026-04-30 13:07 32.52965 -64.57192 8264 ft 314 kts 134°
2026-04-30 13:07 32.51469 -64.55307 7314 ft 313 kts 134°
2026-04-30 13:07 32.49977 -64.53429 6387 ft 312 kts 134°
2026-04-30 13:07 32.48507 -64.51539 5393 ft 311 kts 133°
2026-04-30 13:08 32.47071 -64.49642 4445 ft 308 kts 132°
2026-04-30 13:08 32.45683 -64.47787 3956 ft 290 kts 131°
2026-04-30 13:08 32.44387 -64.46051 3570 ft 273 kts 132°
2026-04-30 13:08 32.43019 -64.44606 3130 ft 258 kts 150°
2026-04-30 13:09 32.41321 -64.44065 2494 ft 249 kts 185°
2026-04-30 13:09 32.39653 -64.44309 2095 ft 235 kts 195°
2026-04-30 13:09 32.38058 -64.44707 1707 ft 236 kts 198°
2026-04-30 13:09 32.36480 -64.45119 1517 ft 227 kts 197°
2026-04-30 13:10 32.35002 -64.45609 1507 ft 211 kts 210°
2026-04-30 13:10 32.33897 -64.46552 1457 ft 187 kts 237°
2026-04-30 13:10 32.33366 -64.47893 1474 ft 176 kts 267°
2026-04-30 13:10 32.33431 -64.49288 1512 ft 164 kts 278°
2026-04-30 13:11 32.33548 -64.50583 1478 ft 156 kts 278°
2026-04-30 13:11 32.33686 -64.51831 1502 ft 151 kts 280°
2026-04-30 13:11 32.33870 -64.53046 1469 ft 150 kts 284°
2026-04-30 13:11 32.34074 -64.54255 1492 ft 150 kts 283°
2026-04-30 13:12 32.34278 -64.55473 1470 ft 152 kts 283°
2026-04-30 13:12 32.34488 -64.56706 1511 ft 153 kts 283°
2026-04-30 13:12 32.34699 -64.57948 1461 ft 156 kts 283°
2026-04-30 13:13 32.35124 -64.60432 1032 ft 151 kts 284°
2026-04-30 13:13 32.35329 -64.61623 829 ft 148 kts 283°
2026-04-30 13:13 32.35725 -64.63920 458 ft 140 kts 281°
2026-04-30 13:14 32.35916 -64.65042 277 ft 139 kts 281°
2026-04-30 13:14 32.36112 -64.66176 85 ft 143 kts 282°
2026-04-30 13:14 32.36432 -64.68033 28 ft 83 kts 281°
2026-04-30 13:15 32.36533 -64.68611 30 ft 62 kts 282°
2026-04-30 13:15 32.36616 -64.69098 28 ft 0 kts 281°
2026-04-30 13:16 32.36617 -64.69102 28 ft 3 kts 280°
2026-04-30 13:16 32.36618 -64.69130 28 ft 3 kts 269°
2026-04-30 13:16 32.36616 -64.69156 28 ft 4 kts 263°
2026-04-30 13:17 32.36591 -64.69246 29 ft 7 kts 249°
2026-04-30 13:17 32.36574 -64.69296 30 ft 6 kts 249°
2026-04-30 13:17 32.36537 -64.69404 34 ft 13 kts 246°
2026-04-30 13:18 32.36487 -64.69543 34 ft 19 kts 247°
2026-04-30 13:18 32.36396 -64.69801 36 ft 15 kts 248°
2026-04-30 13:18 32.36357 -64.69907 35 ft 14 kts 244°
2026-04-30 13:19 32.36296 -64.70008 36 ft 17 kts 224°
2026-04-30 13:19 32.36213 -64.70057 36 ft 5 kts 173°
2026-04-30 13:19 32.36171 -64.70032 36 ft 11 kts 152°
2026-04-30 13:19 32.36147 -64.70017 36 ft 0 kts 153°